Location: Brachbach
(49.1847°N, 9.7240°E)
Time: 05:40:58
(UTC+00:00)

PCSat - Pass Details

Date: 17 March 2026
Orbit: 780 x 790 km, 67.1° (Epoch: 13 April)

Event Time Altitude Azimuth Distance (km) Brightness Sun altitude
Exits shadow 02:48:29 - 320° (NW) 3,295 12.7 -26.1°
Rises 02:48:29 0° 320° (NW) 3,295 12.7 -26.1°
Reaches altitude 10° 02:52:15 10° 346° (NNW) 2,365 12.2 -25.6°
Maximum altitude 02:54:57 14° 16° (NNE) 2,113 12.3 -25.2°
Drops below altitude 10° 02:57:39 10° 46° (NE) 2,363 13.0 -24.9°
Sets 03:01:24 0° 72° (ENE) 3,290 14.1 -24.3°
